Terug naar catalogus

CZ-6A DEB

ActiefSSO
NORAD 54468·DEBRIS·🇨🇳 China

Gelanceerd Nov 11, 2022 vanaf Taiyuan Satellite Launch Center

Loading…

Volgende Passages (komende 24 uur)

TLE

VersSource: Space-Track

Epoch: Sep 14, 2026, 00:38 UTC

1 54468U 22151GU  26257.02671742  .00000547  00000-0  26434-3 0  9997
2 54468  98.7522 269.4708 0053817  90.4296 270.3048 14.21811469198731

Volg CZ-6A DEB in realtime met AllMySat

Download on the App Store